Regional Weather Roundup
Issued by NWS Newport/Morehead, NC

Home | Current Version | Previous Version | Text Only | Print | Product List | Glossary On
Versions: 1 2 3 4 5 6 7 8 9 10 11 12 13 14 15 16 17 18 19 20 21 22 23 24 25 26 27 28 29 30 31 32 33 34 35 36 37 38 39 40 41 42 43 44 45 46 47 48 49 50
000
ASUS42 KMHX 241513
RWRMHX
WEATHER ROUNDUP FOR EASTERN NORTH CAROLINA
NATIONAL WEATHER SERVICE NEWPORT/MOREHEAD CITY NC
1100 AM EDT SAT JUN 24 2017

NOTE: "FAIR" INDICATES FEW OR NO CLOUDS BELOW 12,000 FEET
WITH NO SIGNIFICANT WEATHER AND/OR OBSTRUCTIONS TO VISIBILITY

NCZ015>017-031-032-045>047-102-103-241600-
NORTH COAST

CITY           SKY/WX    TMP DP  RH WIND       PRES   REMARKS
EDENTON        MOSUNNY   86  73  65 W12       29.92R
ELIZABETH CITY MOSUNNY   87  73  62 W15G23    29.90R
KITTY HAWK     MOSUNNY   85  72  65 W15G25    29.90R
MANTEO         PTSUNNY   83  73  70 W15       29.92R

$$

NCZ045>047-081-094-103-104-241600-
CENTRAL COAST

CITY           SKY/WX    TMP DP  RH WIND       PRES   REMARKS
FRISCO         MOSUNNY   83  75  77 SW16G28   29.95R

$$

NCZ095-097-098-100-101-241600-
SOUTHERN COAST

CITY           SKY/WX    TMP DP  RH WIND       PRES   REMARKS
BEAUFORT       PTSUNNY   85  80  85 SW20G30   29.96S
CEDAR ISLAND   NOT AVBL
JACKSONVILLE   MOSUNNY   87  76  69 SW10G18   29.95R
PINEY ISLAND   PTSUNNY  N/A N/A N/A SW13      29.94R
WILMINGTON     MOSUNNY   89  73  59 W17G24    29.97R


$$

NCZ011>013-027>030-043-044-078>080-089-090>093-098-241600-
COASTAL PLAIN

CITY           SKY/WX    TMP DP  RH WIND       PRES   REMARKS
AHOSKIE          N/A     82  69  64 CALM      29.92R
CLINTON        PTSUNNY   85  76  74 W10       29.96R
ELIZABETHTOWN  NOT AVBL
GOLDSBORO      PTSUNNY   86  78  77 W14       29.93R
GREENVILLE     CLOUDY    84  73  70 W6        29.95S
HAVELOCK       PTSUNNY   88  74  63 SW16      29.96R
KENANSVILLE    CLOUDY    84  75  74 W7        29.95S
KINSTON        MOSUNNY   86  73  66 SW10      29.95R
NEW BERN       PTSUNNY   86  75  69 W13       29.95R
RICHLANDS      CLOUDY    86  76  71 W9        29.96R
ROCKY MOUNT    SUNNY     85  71  63 SW8       29.93R
WASHINGTON     MOSUNNY  N/A N/A N/A W10       29.93R
WHITEVILLE     MOSUNNY   86  74  68 SW8G16    29.98R

$$

AMZ130-135-150-152-154-156-158-170-250-252-270-ANZ085-086-088-633-658-670-241600-
MARINE OBSERVATIONS

STATION/POSITION TIME  TEMP    WIND        PRES    WAVE   SWELL
                       AIR SEA DIR/SP/G            HT/PER HT/PER
                 (UTC) (F)     (DEG/KT/KT) (MB)    (FT/S) (FT/S)
CHESAPEAKE LIGHT NOT AVBL
64 E VA BEACH    1450   74 71  240/ 16/ 17 1012.3    7/ 7   3/10
DUCK             1448   82 60  260/ 19/ 22 1012.3
2 E DUCK         NOT AVBL
OREGON INLET     1442   83 80  240/ 16/ 20 1012.7
13E OREGON INLT  1448      72                N/A     5/ 7   3/ 7
HATTERAS CG      1448   81 78  230/ 14/ 20 1013.9
DIAMOND BUOY     1450   80 80  240/ 23/ 27 1013.9    9/ 8   2/11
CAPE LOOKOUT     1500   82     230/ 14/ 20 1014.4
BEAUFORT LAB     1448   82 77  230/  9/ 16 1014.0
30 SE NEW RVR IN 1408   80 80  240/ 19/ 27 1015.1
30 SE NEW RVR IN 1443      80                N/A     7/ 7
27 SE WRIGHTSVLE 1408   79 79  220/ 19/ 27 1015.1
5 SE WRIGHTSVLE  1408   80 78  230/ 14/ 19 1014.6
225 S CAPE HAT   1450   81 80  220/ 14/ 16 1019.2    4/ 5   2/ 8
41 SE CHARLESTON 1450   81 81  220/ 17/ 21 1016.5    5/ 6   2/ 9

$$




USA.gov is the U.S. government's official web portal to all federal, state and local government web resources and services.